Weather History for Roanoke, VA

Change the Weather History Date:

Saturday, November 24, 2012

  Actual Average Record
Temperature  
Mean Temperature 37 °F 45 °F  
Max Temperature 45 °F 55 °F 77 °F (1973)
Min Temperature 28 °F 35 °F 12 °F (1970)
Degree Days  
Heating Degree Days 28 20  
Month to date heating degree days 468 381  
Since 1 July heating degree days 758 678  
Cooling Degree Days 0 0  
Month to date cooling degree days 0 0  
Year to date cooling degree days 1423 1207  
Moisture  
Dew Point 18 °F    
Average Humidity 47    
Maximum Humidity 56    
Minimum Humidity 37    
Precipitation  
Precipitation 0.00 in 0.11 in 1.21 in (1938)
Month to date precipitation 0.55 2.73  
Year to date precipitation 30.27 37.64  
Snow  
Snow 0.00 in - - ()
Month to date snowfall 0.0  
Since 1 July snowfall T  
Since 1 September snowfall T  
Snow Depth 0.00 in    
Sea Level Pressure  
Sea Level Pressure 30.06 in    
Wind  
Wind Speed 14 mph (NW)    
Max Wind Speed 28 mph    
Max Gust Speed 37 mph    
Visibility 10 miles    
Events      
T = Trace of Precipitation, MM = Missing Value Source: NWS Daily Summary

Daily Weather History Graph

Daily Weather History Graph

Search for Another Location

Airport:

Trip Planner

Search our weather history database for the weather conditions in past years. The results will help you decide how hot, cold, wet, or windy it might be!

Date:

Astronomy

Nov. 24, 2012 Rise Set
Actual Time 7:08 AM EST 5:04 PM EST
Civil Twilight 6:40 AM EST 5:32 PM EST
Nautical Twilight 6:08 AM EST 6:04 PM EST
Astronomical Twilight 5:37 AM EST 6:35 PM EST
Moon 2:45 PM EST (11/24) 3:28 AM EST (11/24)
Length of Visible Light 10h 52m
Length of Day
9h 55m
Waxing Gibbous, 87% of the Moon is Illuminated
Nov 24
Waxing Gibbous
Nov 28
Full
Dec 6
Last Quarter
Dec 13
New
Dec 20
First Quarter

Hourly Weather History & Observations

Time (EST) Temp. Windchill Dew Point Humidity Pressure Visibility Wind Dir Wind Speed Gust Speed Precip Events Conditions
12:54 AM 44.1 °F 37.4 °F 26.1 °F 49% 29.94 in 10.0 mi NW 13.8 mph 20.7 mph N/A   Scattered Clouds
1:54 AM 41.0 °F 31.6 °F 21.9 °F 47% 29.96 in 10.0 mi NW 20.7 mph 33.4 mph N/A   Scattered Clouds
2:54 AM 39.9 °F 32.9 °F 21.9 °F 49% 29.98 in 10.0 mi WNW 11.5 mph - N/A   Overcast
3:54 AM 37.9 °F 30.0 °F 21.0 °F 51% 29.99 in 10.0 mi WNW 12.7 mph 27.6 mph N/A   Overcast
4:54 AM 36.0 °F 27.5 °F 21.0 °F 55% 30.01 in 10.0 mi NNW 12.7 mph - N/A   Overcast
5:54 AM 35.1 °F 25.9 °F 19.9 °F 54% 30.01 in 10.0 mi WNW 13.8 mph - N/A   Mostly Cloudy
6:54 AM 34.0 °F 24.2 °F 18.0 °F 52% 30.03 in 10.0 mi WNW 15.0 mph 24.2 mph N/A   Scattered Clouds
7:54 AM 33.1 °F 21.5 °F 18.0 °F 54% 30.04 in 10.0 mi NW 19.6 mph 29.9 mph N/A   Scattered Clouds
8:54 AM 35.1 °F 26.4 °F 18.0 °F 50% 30.05 in 10.0 mi WNW 12.7 mph 28.8 mph N/A   Scattered Clouds
9:54 AM 36.0 °F 26.0 °F 17.1 °F 46% 30.07 in 10.0 mi NW 17.3 mph 31.1 mph N/A   Scattered Clouds
10:54 AM 37.9 °F 30.5 °F 18.0 °F 45% 30.08 in 10.0 mi WNW 11.5 mph 20.7 mph N/A   Scattered Clouds
11:54 AM 37.9 °F 28.5 °F 17.1 °F 43% 30.06 in 10.0 mi WNW 17.3 mph 29.9 mph N/A   Scattered Clouds
12:54 PM 37.9 °F 30.5 °F 17.1 °F 43% 30.04 in 10.0 mi NW 11.5 mph 26.5 mph N/A   Partly Cloudy
1:54 PM 39.0 °F 29.6 °F 17.1 °F 41% 30.05 in 10.0 mi West 18.4 mph 26.5 mph N/A   Clear
2:54 PM 39.0 °F 30.3 °F 16.0 °F 39% 30.06 in 10.0 mi WNW 16.1 mph 26.5 mph N/A   Partly Cloudy
3:54 PM 36.0 °F 24.7 °F 15.1 °F 43% 30.08 in 10.0 mi WNW 21.9 mph 29.9 mph N/A   Partly Cloudy
4:54 PM 34.0 °F 23.8 °F 15.1 °F 46% 30.10 in 10.0 mi NW 16.1 mph 26.5 mph N/A   Partly Cloudy
5:54 PM 32.0 °F 22.1 °F 16.0 °F 52% 30.13 in 10.0 mi NW 13.8 mph 19.6 mph N/A   Scattered Clouds
6:54 PM 32.0 °F 26.4 °F 16.0 °F 52% 30.14 in 10.0 mi NW 5.8 mph - N/A   Mostly Cloudy
7:54 PM 32.0 °F 24.8 °F 15.1 °F 50% 30.15 in 10.0 mi NW 8.1 mph - N/A   Mostly Cloudy
8:54 PM 30.9 °F 20.7 °F 15.1 °F 52% 30.15 in 10.0 mi NW 13.8 mph - N/A   Scattered Clouds
9:54 PM 32.0 °F 23.0 °F 15.1 °F 50% 30.17 in 10.0 mi WNW 11.5 mph - N/A   Mostly Cloudy
10:54 PM 30.0 °F 21.1 °F 15.1 °F 54% 30.16 in 10.0 mi NW 10.4 mph - N/A   Partly Cloudy
11:54 PM 30.0 °F 21.7 °F 15.1 °F 54% 30.14 in 10.0 mi WNW 9.2 mph - N/A   Partly Cloudy